[[{"header":{"parameterUnit":"m.s-1","parameterCategory":1,"la1":30.2991,"la2":30.254,"lo1":-89.0895,"lo2":-89.0444,"dy":0.0017,"dx":0.0017,"nx":28,"ny":28,"refTime":"2023-07-20T03:00:00:Z","depth":0,"parameterNumber":2,"parameterNumberName":"U-component_of_WINDS"},"data":[0,0,0,0,0,0,0,0,0,0,0,0,0,0,0,0,0,0,0,0,0,0,0,0,0,0,0,0,0,0,0,0,0,0,0,0,0,0,0,0,0,0,0,0,0,0,0,0,0,0,0,0,0,0,0,0,0,0,1.4395,1.4396,0,1.4498,1.4499,1.45,1.4507,1.4505,1.4504,1.4503,1.461,1.4614,1.4618,0,0,0,0,0,0,0,0,0,0,0,0,0,1.4203,1.4207,1.4395,1.4396,1.4397,1.4498,1.4499,1.4501,1.4507,1.4505,1.4504,1.4503,1.4609,1.4614,1.4619,0,0,0,0,0,0,0,0,0,0,0,0,0,1.4294,1.4208,1.4394,1.4412,1.4415,1.4498,1.4499,1.4501,1.4507,1.4505,1.4504,1.4502,1.4608,1.4613,1.4619,1.4691,0,0,1.4637,1.464,0,0,0,0,0,0,0,0,1.4289,1.4301,1.4408,1.4411,1.4414,1.4488,1.4471,1.4565,1.4508,1.4472,1.4503,1.4501,1.4571,1.458,1.4603,1.4696,1.4701,1.4638,1.4641,1.4644,1.4646,0,0,0,0,0,0,0,1.4283,1.4297,1.4436,1.441,1.4414,1.4415,1.4426,1.4489,1.453,1.4475,1.4476,1.4488,1.4572,1.4597,1.4606,1.4703,1.4638,1.4643,1.4647,1.4649,1.4859,1.486,0,0,0,0,0,0,1.4273,1.4292,1.4432,1.4439,1.4346,1.442,1.4433,1.4466,1.453,1.4538,1.4489,1.4488,1.4588,1.4599,1.461,1.4697,1.4644,1.465,1.4653,1.4857,1.4859,1.4861,0,0,0,0,0,0,1.4269,1.4285,1.4428,1.4365,1.4384,1.4425,1.4463,1.4469,1.4494,1.454,1.4548,1.4507,1.4587,1.4601,1.4671,1.4701,1.4652,1.4658,1.4854,1.4857,1.486,1.4874,0,0,0,0,0,0,1.4263,1.4284,1.4312,1.4366,1.4387,1.4487,1.4465,1.4472,1.4504,1.4503,1.4559,1.4567,1.4587,1.4662,1.4676,1.4708,1.4662,1.4852,1.4856,1.4859,1.4871,1.4877,1.4882,0,0,0,0,0,1.4256,1.4312,1.4313,1.433,1.4423,1.4489,1.4501,1.4523,1.4506,1.4535,1.4564,1.4565,1.4695,1.4669,1.4685,1.472,1.485,1.4854,1.4859,1.4868,1.4876,1.4882,0,0,0,0,0,0,1.4261,1.432,1.4321,1.4396,1.4437,1.449,1.4526,1.453,1.4577,1.4574,1.4599,1.4612,1.468,1.4707,1.4676,1.4792,1.4771,1.4779,1.4772,1.478,1.4785,1.4777,1.4667,0,0,0,0,0,1.4271,1.4319,1.4368,1.4429,1.445,1.4484,1.4514,1.4527,1.4571,1.4589,1.4623,1.4666,1.4717,1.475,1.4799,1.4874,1.4886,1.4906,1.4912,1.4916,1.4923,1.4964,1.4973,1.4876,1.4876,1.4876,0,0,1.4291,1.4329,1.4359,1.4431,1.4465,1.4515,1.4499,1.4553,1.459,1.4597,1.4664,1.4691,1.4741,1.4813,1.4847,1.4837,1.4952,1.4922,1.4925,1.493,1.4969,1.4978,1.4987,1.4879,1.4879,1.4878,0,0,1.4354,1.4388,1.4442,1.4476,1.4526,1.4549,1.4562,1.4614,1.4631,1.4699,1.4705,1.4749,1.4836,1.4871,1.49,1.4974,1.4977,1.499,1.5019,1.5059,1.5066,1.5073,1.5099,1.5108,1.4996,1.4996,1.4996,0,1.4374,1.4449,1.447,1.4523,1.4554,1.4562,1.4617,1.4649,1.4713,1.4734,1.4723,1.4831,1.4865,1.4945,1.4963,1.4986,1.5002,1.4984,1.5064,1.5071,1.5077,1.5102,1.5112,1.4998,1.4997,1.4997,1.4997,0,1.447,1.4522,1.4559,1.462,1.4656,1.471,1.4739,1.4772,1.4782,1.4805,1.4873,1.4914,1.4971,1.4991,1.5001,1.5073,1.5065,1.5058,1.5037,1.5088,1.5111,1.5121,1.4999,1.4999,1.4998,1.4998,0,0,1.4539,1.461,1.4623,1.465,1.4706,1.4747,1.48,1.4855,1.4883,1.4927,1.4973,1.5045,1.5039,1.5072,1.5086,1.5121,1.5176,1.511,1.5111,1.512,1.5256,1.526,1.5271,1.5178,1.518,1.5181,1.5251,0,1.4608,1.4703,1.4723,1.4806,1.4853,1.4861,1.4907,1.4947,1.497,1.5014,1.504,1.509,1.5078,1.5098,1.5133,1.5162,1.5203,1.5157,1.522,1.5222,1.5207,1.5283,1.5289,1.5353,1.5261,1.5263,1.5264,0,1.47,1.4745,1.4832,1.488,1.4901,1.4943,1.4994,1.5036,1.5081,1.5095,1.5131,1.5141,1.5197,1.5173,1.5251,1.5218,1.5245,1.5263,1.5266,1.5273,1.5246,1.5292,1.5374,1.5383,1.5279,1.5278,1.5276,0,1.4741,1.4824,1.4886,1.4909,1.4967,1.4996,1.5022,1.5064,1.5095,1.514,1.5161,1.5212,1.524,1.5279,1.5303,1.5284,1.5378,1.5357,1.5392,1.5391,1.5411,1.541,1.5499,1.5429,1.5429,1.5429,1.5429,0,1.4815,1.4868,1.4905,1.4943,1.5002,1.5025,1.5082,1.5108,1.5145,1.5189,1.5199,1.5239,1.5268,1.5312,1.5331,1.5392,1.5405,1.5418,1.5422,1.5417,1.5415,1.5435,1.5431,1.5431,1.5431,1.543,1.543,0,1.4871,1.4898,1.4966,1.5015,1.5028,1.507,1.5112,1.5149,1.5172,1.5226,1.5241,1.5277,1.5329,1.5357,1.5423,1.5436,1.5504,1.5506,1.5488,1.549,1.5523,1.5519,1.5628,1.5643,1.5564,1.5564,1.5565,0,1.4916,1.4957,1.501,1.5039,1.5065,1.5112,1.5144,1.5167,1.52,1.5253,1.5284,1.5337,1.538,1.5464,1.5497,1.5547,1.555,1.5584,1.5558,1.5551,1.555,1.5547,1.5551,1.5589,1.559,1.5591,1.5591,0,1.4994,1.5005,1.505,1.5099,1.5136,1.5177,1.5216,1.524,1.5269,1.5305,1.5359,1.5393,1.546,1.5512,1.5565,1.5591,1.5596,1.5599,1.561,1.5604,1.5592,1.5599,1.5501,1.5597,1.5596,1.5596,1.5595,1.5595,1.5045,1.5081,1.5124,1.5173,1.5205,1.5242,1.5279,1.5306,1.5351,1.5406,1.5417,1.5474,1.5516,1.5587,1.5616,1.566,1.5653,1.5669,1.5673,1.5676,1.5677,1.5585,1.567,1.567,1.567,1.567,1.567,0,1.5123,1.515,1.5195,1.525,1.5288,1.5289,1.5332,1.5365,1.5414,1.5453,1.5495,1.5557,1.5607,1.5643,1.5695,1.5723,1.5727,1.5736,1.5734,1.574,1.5681,1.5666,1.5732,1.5732,1.5732,1.5732,1.5732,1.5732,1.5167,1.5228,1.5243,1.532,1.5347,1.5401,1.5426,1.546,1.5491,1.5558,1.56,1.5623,1.566,1.5715,1.5761,1.577,1.5788,1.5798,1.5807,1.5751,1.5744,1.5738,1.5724,1.5801,1.5802,1.5862,1.5863,1.5863]},{"header":{"parameterUnit":"m.s-1","parameterCategory":1,"la1":30.2991,"la2":30.254,"lo1":-89.0895,"lo2":-89.0444,"dy":0.0017,"dx":0.0017,"nx":28,"ny":28,"refTime":"2023-07-20T03:00:00:Z","depth":0,"parameterNumber":3,"parameterNumberName":"V-component_of_WINDS"},"data":[0,0,0,0,0,0,0,0,0,0,0,0,0,0,0,0,0,0,0,0,0,0,0,0,0,0,0,0,0,0,0,0,0,0,0,0,0,0,0,0,0,0,0,0,0,0,0,0,0,0,0,0,0,0,0,0,0,0,5.5883,5.5883,0,5.5931,5.5931,5.5932,5.5856,5.5853,5.5851,5.5848,5.5891,5.5895,5.5898,0,0,0,0,0,0,0,0,0,0,0,0,0,5.572,5.5723,5.5883,5.5883,5.5884,5.593,5.5931,5.5932,5.5856,5.5853,5.585,5.5847,5.589,5.5894,5.5899,0,0,0,0,0,0,0,0,0,0,0,0,0,5.5781,5.5724,5.5882,5.5852,5.585,5.593,5.5931,5.5932,5.5857,5.5853,5.5849,5.5846,5.5889,5.5894,5.5899,5.601,0,0,5.5916,5.5918,0,0,0,0,0,0,0,0,5.5778,5.5787,5.5856,5.5854,5.5852,5.5883,5.5889,5.5958,5.5858,5.5854,5.5848,5.5844,5.5892,5.5896,5.5914,5.6012,5.6014,5.5916,5.5919,5.5922,5.5923,0,0,0,0,0,0,0,5.5774,5.5785,5.5901,5.5857,5.5855,5.5834,5.5838,5.5902,5.5894,5.5854,5.5849,5.5856,5.589,5.5909,5.5914,5.6015,5.5916,5.5921,5.5924,5.5926,5.6205,5.6209,0,0,0,0,0,0,5.5774,5.5782,5.59,5.5903,5.5805,5.584,5.5845,5.5877,5.5893,5.5892,5.5859,5.5852,5.5902,5.5908,5.5915,5.6046,5.5922,5.5927,5.593,5.6201,5.6206,5.6211,0,0,0,0,0,0,5.5771,5.5785,5.5898,5.5841,5.5854,5.5847,5.5884,5.588,5.5899,5.5897,5.5894,5.5881,5.5899,5.5908,5.5987,5.6046,5.5929,5.5934,5.6196,5.6203,5.6209,5.6307,0,0,0,0,0,0,5.5766,5.5785,5.5828,5.5843,5.5857,5.5971,5.5887,5.5884,5.5909,5.5901,5.5916,5.5915,5.5896,5.598,5.5993,5.6051,5.5938,5.6191,5.6199,5.6207,5.6299,5.6316,5.6331,0,0,0,0,0,5.5761,5.5853,5.5831,5.5845,5.5912,5.5975,5.5983,5.5961,5.5914,5.5957,5.5955,5.5915,5.6038,5.5989,5.6002,5.6063,5.6187,5.6197,5.6206,5.6291,5.6313,5.6331,0,0,0,0,0,0,5.5843,5.5854,5.583,5.5929,5.5952,5.5962,5.6015,5.5984,5.6019,5.6009,5.5979,5.5983,5.6069,5.6074,5.6019,5.6171,5.6104,5.6117,5.6165,5.6185,5.6201,5.6197,5.5943,0,0,0,0,0,5.5873,5.5925,5.5931,5.6018,5.6031,5.6022,5.6048,5.603,5.6051,5.606,5.6064,5.6084,5.6128,5.6157,5.6196,5.63,5.6301,5.6348,5.6364,5.6378,5.6389,5.6443,5.6463,5.6242,5.6242,5.6242,0,0,5.5934,5.5947,5.5981,5.6035,5.6051,5.6104,5.603,5.6089,5.6127,5.6068,5.6144,5.6148,5.6168,5.626,5.6301,5.6267,5.645,5.639,5.6401,5.6404,5.6455,5.6476,5.6494,5.6248,5.6247,5.6246,0,0,5.6074,5.609,5.6164,5.6181,5.6206,5.6199,5.6217,5.6232,5.6233,5.631,5.6266,5.631,5.6386,5.6402,5.642,5.6567,5.6531,5.6581,5.6665,5.6718,5.6736,5.6751,5.6802,5.6821,5.6592,5.6592,5.6593,0,5.6146,5.6227,5.6205,5.6268,5.6292,5.6243,5.6317,5.6334,5.637,5.6387,5.635,5.6444,5.6454,5.6549,5.6585,5.6602,5.662,5.6578,5.6735,5.6751,5.6764,5.6813,5.6833,5.6598,5.6598,5.6597,5.6597,0,5.6315,5.6371,5.6427,5.6466,5.6497,5.6565,5.6551,5.6585,5.6564,5.656,5.6638,5.6649,5.669,5.6712,5.6691,5.6804,5.6782,5.6741,5.6673,5.6792,5.6837,5.6855,5.6607,5.6605,5.6603,5.6601,0,0,5.6505,5.6532,5.6553,5.657,5.6595,5.6637,5.6702,5.6744,5.6773,5.68,5.6852,5.6918,5.688,5.6901,5.6882,5.6929,5.7043,5.6881,5.6881,5.691,5.7167,5.7197,5.7219,5.702,5.7023,5.7026,5.7165,0,5.6643,5.6759,5.6741,5.6851,5.6902,5.6857,5.6913,5.6934,5.6932,5.6974,5.6971,5.7018,5.6965,5.6977,5.7022,5.702,5.7094,5.701,5.7067,5.7069,5.7062,5.7243,5.7275,5.7405,5.7182,5.7185,5.7188,0,5.682,5.6856,5.6972,5.6989,5.7009,5.7061,5.7098,5.7139,5.716,5.7156,5.7181,5.7153,5.7216,5.7149,5.7234,5.7177,5.72,5.7202,5.7207,5.721,5.7135,5.725,5.7446,5.7465,5.7215,5.7213,5.7211,0,5.6946,5.7023,5.7102,5.7118,5.714,5.7177,5.7188,5.7206,5.7232,5.7264,5.7281,5.7319,5.734,5.737,5.7353,5.7305,5.7441,5.7372,5.7437,5.7438,5.7467,5.7465,5.7668,5.7484,5.7483,5.7483,5.7483,0,5.7102,5.7174,5.7159,5.7208,5.7287,5.7266,5.7344,5.7349,5.7366,5.7413,5.7376,5.742,5.7396,5.7438,5.7425,5.7498,5.7507,5.7504,5.7499,5.7507,5.7507,5.752,5.751,5.7488,5.7487,5.7486,5.7485,0,5.7255,5.7249,5.7332,5.7347,5.7352,5.741,5.7422,5.7466,5.7463,5.7523,5.7536,5.7529,5.7578,5.7564,5.7615,5.7607,5.7698,5.7683,5.7692,5.7687,5.7753,5.7747,5.7971,5.7998,5.7797,5.7799,5.7801,0,5.7354,5.7409,5.7431,5.7461,5.7475,5.7524,5.7552,5.7533,5.7562,5.7592,5.7632,5.7678,5.7713,5.7792,5.779,5.7829,5.7813,5.7889,5.7819,5.7825,5.7813,5.781,5.7815,5.7903,5.7905,5.7907,5.7909,0,5.753,5.7525,5.7567,5.7609,5.7644,5.7675,5.7702,5.7729,5.7712,5.7747,5.7797,5.7824,5.7878,5.7923,5.7959,5.7967,5.7935,5.7931,5.7948,5.7955,5.7958,5.7957,5.7729,5.7926,5.7924,5.7923,5.7922,5.7921,5.7658,5.7705,5.7728,5.7777,5.7796,5.7823,5.7866,5.7869,5.7911,5.7955,5.794,5.7997,5.8017,5.8062,5.8075,5.8118,5.8089,5.8114,5.812,5.8126,5.8134,5.7953,5.8125,5.8124,5.8124,5.8123,5.8123,0,5.7831,5.7845,5.789,5.7931,5.7969,5.7938,5.7967,5.8,5.8051,5.8074,5.811,5.8167,5.821,5.8214,5.8254,5.8288,5.8274,5.8299,5.8295,5.8298,5.8158,5.8139,5.8309,5.8309,5.8309,5.8309,5.8309,5.8309,5.7926,5.8003,5.8001,5.8087,5.8099,5.8156,5.8175,5.8199,5.8217,5.8283,5.832,5.8323,5.8337,5.8378,5.8417,5.8416,5.8432,5.8463,5.8457,5.8326,5.8307,5.829,5.8271,5.8467,5.8467,5.8592,5.8593,5.8594]}]]